Weather Roundup
Issued by NWS Chicago, IL

Home | Current Version | Previous Version | Text Only | Print | Product List | Glossary On
Versions: 1 2 3 4 5 6 7 8 9 10 11 12 13 14 15 16 17 18 19 20 21 22 23 24 25 26 27 28 29 30 31 32 33 34 35 36 37 38 39 40 41 42 43 44 45 46 47 48 49 50
000
NZUS59 KLOT 290308
HRRLOT

CHICAGO AREA WEATHER ROUNDUP
NATIONAL WEATHER SERVICE CHICAGO/ROMEOVILLE IL
1000 PM CDT SUN AUG 28 2016

NOTE: "FAIR" INDICATES FEW OR NO CLOUDS BELOW 12,000 FEET WITH NO
SIGNIFICANT WEATHER AND/OR OBSTRUCTIONS TO VISIBILITY.

* THESE STATIONS ARE NOT UNDER NWS QUALITY CONTROL. THEY ALSO MAY NOT
  REPORT WEATHER SUCH AS PRECIPITATION OR FOG.

ILZ005-006-012>014-019>023-290400-
NORTHEAST ILLINOIS

CITY           SKY/WX    TMP DP  RH WIND       PRES   REMARKS
OHARE          MOCLDY    73  69  87 E6        30.21R
MIDWAY         CLOUDY    75  69  81 NE12      30.21R
AURORA         MOCLDY    71  68  90 VRB3      30.21R
LANSING*       CLEAR     72  72  99 NE5       30.21R
JOLIET*        PTCLDY    72  71  96 CALM      30.21R
WAUKEGAN       CLOUDY    69  67  93 CALM      30.22R
DUPAGE AIRPORT CLOUDY    73  68  84 NE5       30.21R
WHEELING       MOCLDY    72  69  90 CALM      30.22R
KANKAKEE*      CLEAR     71  70  97 CALM      30.21R
MORRIS*        PTCLDY    69  68  96 CALM      30.20R
LEWIS AIRPORT* PTCLDY    69  69 100 CALM      30.21R
$$

WIZ051-052-058>065-066-070>072-290400-
SOUTHEAST WISCONSIN

CITY           SKY/WX    TMP DP  RH WIND       PRES   REMARKS
MILWAUKEE      PTCLDY    70  66  87 CALM      30.21S
KENOSHA*       CLOUDY    67  65  93 E5        30.23R FOG
RACINE*        MOCLDY    68  66  93 CALM      30.24R
BURLINGTON     PTCLDY    66  65  97 CALM      30.22R
WAUKESHA       PTCLDY    66  64  94 CALM      30.23S
$$

INZ001>003-010>013-019-020-290400-
NORTHWEST INDIANA

CITY           SKY/WX    TMP DP  RH WIND       PRES   REMARKS
GARY*          MOCLDY    73  72  94 NE7       30.21R
MICHIGAN CITY* NOT AVBL
RENSSELAER*    NOT AVBL
VALPARAISO     CLOUDY    71  69  93 CALM      30.22R
$$

LMZ740>746-290400-
SOUTHERN LAKE MICHIGAN

STATION/POSITION TIME  SKY/WX   TEMP WIND        PRES    VSBY
                                AIR  DIR/SP/G
                 (UTC)          (F)  (DEG/KT/KT) (MB)    (MI)
HARRISON CRIB    0200            75   60/ 14/ 14   N/A
BURNHAM HARBOR   0300            73   60/  6/ 10   N/A
CALUMET HARBOR   0200            72   40/  5/  8 1021.9R
BURNS HARBOR     0202            74   80/  5/ 12 1023.0R
MICHIGAN CITY    0200            74   30/ 13/ 14   N/A
$$

ABBREVIATIONS USED IN REMARKS
   TC - TEMPERATURE IN CELSIUS
  WCI - WIND CHILL INDEX
   HX - HEAT INDEX
  VSB - VISIBILITY
$$




USA.gov is the U.S. government's official web portal to all federal, state and local government web resources and services.